Retour au catalogue

SL-16 DEB

ActifPO
NORAD 25862·DEBRIS·🇷🇺 Russia

Lancé Jul 17, 1999 depuis Baikonur Cosmodrome

Loading…

Prochains Passages (prochaines 24 heures)

TLE

FraisSource: Space-Track

Époque: Sep 14, 2026, 08:52 UTC

1 25862U 99039C   26257.36961885  .00000392  00000-0  10932-3 0  9993
2 25862  97.7396 228.6438 0154527 211.7470 147.4336 14.44436729425671

Suivez SL-16 DEB en temps réel avec AllMySat

Download on the App Store